AB0DE-15 Weather Reports


time (UTC)temp
F
wind
direction
speed
knots
gust
knots
rain 1hr
in
rain 24hr
in
rain mn
in
humidity
%
barometer
mb
20260906153027 74 138 0.0 4.3 0.00 0.00 0.00 82 1020.1
20260906152512 74 20 0.9 3.5 0.00 0.00 0.00 82 1020.1
20260906152013 74 133 0.0 6.1 0.00 0.00 0.00 83 1020.1
20260906151505 73 25 0.9 6.1 0.00 0.00 0.00 83 1020.1
20260906151004 73 12 0.0 3.5 0.00 0.00 0.00 84 1020.1
20260906150504 73 254 0.0 4.3 0.00 0.00 0.00 86 1020.1
20260906150023 72 208 0.9 7.8 0.00 0.00 0.00 85 1020.1
20260906145506 72 290 0.9 8.7 0.00 0.00 0.00 85 1020.1
20260906145004 72 172 0.9 8.7 0.00 0.00 0.00 86 1020.1
20260906144521 72 116 0.0 3.5 0.00 0.00 0.00 87 1020.1
20260906144007 71 146 0.0 3.5 0.00 0.00 0.00 88 1020.0
20260906143510 71 153 0.0 4.3 0.00 0.00 0.00 88 1019.9
20260906143032 71 245 1.7 4.3 0.00 0.00 0.00 88 1019.9
20260906142511 71 73 0.9 5.2 0.00 0.00 0.00 89 1019.8
20260906142015 70 110 0.0 5.2 0.00 0.00 0.00 90 1019.9
20260906141539 70 238 0.9 7.8 0.00 0.00 0.00 90 1019.9
20260906141011 69 31 0.9 7.8 0.00 0.00 0.00 90 1020.0
20260906140515 69 5 1.7 5.2 0.00 0.00 0.00 90 1020.0
20260906140007 69 57 0.0 4.3 0.00 0.00 0.00 91 1019.9
20260906135506 69 274 0.0 6.1 0.00 0.00 0.00 91 1019.9
20260906135004 69 176 1.7 6.1 0.00 0.00 0.00 91 1020.0
20260906134511 69 360 0.0 4.3 0.00 0.00 0.00 92 1020.0
20260906134007 69 120 0.0 1.7 0.00 0.00 0.00 92 1020.0
20260906133505 69 293 0.0 2.6 0.00 0.00 0.00 93 1020.0
20260906133016 68 18 0.0 2.6 0.00 0.00 0.00 93 1019.9
20260906132510 68 25 0.0 4.3 0.00 0.00 0.00 93 1019.9
20260906132010 68 215 0.9 4.3 0.00 0.00 0.00 93 1019.9
20260906131538 68 269 0.9 2.6 0.00 0.00 0.00 94 1019.9
20260906131015 68 8 0.0 1.7 0.00 0.00 0.00 94 1019.8
20260906130511 68 250 0.0 0.9 0.00 0.00 0.00 94 1019.8
20260906130034 68 309 0.0 0.9 0.00 0.00 0.00 94 1019.7
20260906125515 68 183 0.0 0.9 0.00 0.00 0.00 94 1019.8
20260906125014 68 6 0.0 0.9 0.00 0.00 0.00 94 1019.8
20260906124512 68 95 0.0 1.7 0.00 0.00 0.00 95 1019.6
20260906124004 68 152 0.0 1.7 0.00 0.00 0.00 94 1019.6
20260906123504 68 154 0.0 2.6 0.00 0.00 0.00 95 1019.6
20260906123018 68 6 0.0 2.6 0.00 0.00 0.00 95 1019.5
20260906122506 68 22 0.0 1.7 0.00 0.00 0.00 95 1019.5
20260906122009 68 27 0.0 1.7 0.00 0.00 0.00 95 1019.4
20260906121517 68 140 0.0 2.6 0.00 0.00 0.00 95 1019.4
20260906121010 67 166 0.0 2.6 0.00 0.00 0.00 95 1019.4
20260906120510 67 15 0.0 2.6 0.00 0.00 0.00 95 1019.4
20260906120024 67 238 0.0 0.9 0.00 0.00 0.00 95 1019.4
20260906115513 67 71 0.0 1.7 0.00 0.00 0.00 95 1019.4
20260906115013 67 65 0.0 1.7 0.00 0.00 0.00 95 1019.3
20260906114530 67 23 0.0 2.6 0.00 0.00 0.00 95 1019.2
20260906114015 67 146 0.0 2.6 0.00 0.00 0.00 95 1019.2
20260906113515 67 200 0.0 1.7 0.00 0.00 0.00 95 1019.2
20260906113020 67 44 0.0 4.3 0.00 0.00 0.00 95 1019.2
20260906112505 67 201 0.9 4.3 0.00 0.00 0.00 95 1019.3
20260906112005 67 194 0.9 3.5 0.00 0.00 0.00 95 1019.3
20260906111514 67 200 0.0 3.5 0.00 0.00 0.00 95 1019.2
20260906111007 67 37 0.0 3.5 0.00 0.00 0.00 95 1019.2
20260906110509 67 267 0.0 4.3 0.00 0.00 0.00 95 1019.2
20260906110019 67 188 0.0 4.3 0.00 0.00 0.00 96 1019.2
20260906105510 67 53 0.0 0.0 0.00 0.00 0.00 96 1019.0
20260906105014 67 156 0.0 0.0 0.00 0.00 0.00 96 1018.9
20260906104534 67 348 0.0 0.0 0.00 0.00 0.00 96 1018.9
20260906104014 67 29 0.0 0.0 0.00 0.00 0.00 96 1018.7
20260906103516 67 332 0.0 0.0 0.00 0.00 0.00 96 1018.4
20260906103032 67 335 0.0 0.0 0.00 0.00 0.00 95 1018.4
20260906102513 67 58 0.0 0.9 0.00 0.00 0.00 95 1018.3
20260906102018 67 3 0.0 0.9 0.00 0.00 0.00 95 1018.3
20260906101534 67 32 0.0 0.9 0.00 0.00 0.00 95 1018.2
20260906101007 67 347 0.0 0.9 0.00 0.00 0.00 95 1018.3
20260906100505 67 136 0.0 0.9 0.00 0.00 0.00 95 1018.3
20260906100019 68 332 0.0 0.0 0.00 0.00 0.00 95 1018.3
20260906095510 68 311 0.0 0.0 0.00 0.00 0.00 95 1018.2
20260906095008 68 332 0.0 0.9 0.00 0.00 0.00 95 1018.1
20260906094536 68 43 0.0 0.9 0.00 0.00 0.00 95 1018.1
20260906094009 68 92 0.0 0.9 0.00 0.00 0.00 95 1018.1
20260906093518 68 169 0.0 0.9 0.00 0.00 0.00 94 1018.1
20260906093037 68 173 0.0 1.7 0.00 0.00 0.00 94 1018.0
20260906092513 68 53 0.0 1.7 0.00 0.00 0.00 94 1017.9
20260906092015 68 346 0.0 2.6 0.00 0.00 0.00 94 1017.8
20260906091535 68 208 0.0 2.6 0.00 0.00 0.00 94 1017.7
20260906091019 68 29 0.0 1.7 0.00 0.00 0.00 94 1017.7
20260906090518 68 75 0.0 1.7 0.00 0.00 0.00 94 1017.7
20260906090034 68 35 0.0 1.7 0.00 0.00 0.00 94 1017.6
20260906085508 68 77 0.0 1.7 0.00 0.00 0.00 94 1017.6
20260906085013 69 153 0.0 2.6 0.00 0.00 0.00 93 1017.5
20260906084538 69 268 0.0 2.6 0.00 0.00 0.00 93 1017.6
20260906084011 69 100 0.0 0.9 0.00 0.00 0.00 93 1017.7
20260906083509 69 67 0.0 0.9 0.00 0.00 0.00 93 1017.7
20260906083035 69 141 0.0 2.6 0.00 0.00 0.00 92 1017.5
20260906082511 69 96 0.0 2.6 0.00 0.00 0.00 92 1017.6
20260906082012 69 24 0.0 1.7 0.00 0.00 0.00 92 1017.8
20260906081531 69 134 0.0 1.7 0.00 0.00 0.00 92 1017.9
20260906081016 69 155 0.0 0.9 0.00 0.00 0.00 92 1018.0
20260906080514 69 101 0.0 0.9 0.00 0.00 0.00 92 1018.0
20260906080035 69 221 0.0 1.7 0.00 0.00 0.00 92 1018.0
20260906075522 69 126 0.0 1.7 0.00 0.00 0.00 92 1018.1
20260906075016 69 72 0.0 1.7 0.00 0.00 0.00 92 1018.0
20260906074534 69 248 0.0 1.7 0.00 0.00 0.00 92 1018.0
20260906074011 69 302 0.0 1.7 0.00 0.00 0.00 92 1018.0
20260906073507 69 315 0.0 1.7 0.00 0.00 0.00 92 1018.0
20260906073023 69 29 0.0 0.9 0.00 0.00 0.00 93 1018.0
20260906072512 69 8 0.0 1.7 0.00 0.00 0.00 93 1017.9
20260906072011 69 37 0.0 1.7 0.00 0.00 0.00 93 1018.0
20260906071531 69 133 0.0 1.7 0.00 0.00 0.00 93 1018.1
20260906071003 69 206 0.0 0.9 0.00 0.00 0.00 94 1018.1
20260906070504 69 82 0.0 0.9 0.00 0.00 0.00 94 1018.0
20260906070010 69 152 0.0 0.9 0.00 0.00 0.00 94 1018.1
20260906065506 68 42 0.0 0.0 0.00 0.00 0.00 94 1018.1
20260906065004 68 43 0.0 0.0 0.00 0.00 0.00 94 1018.1
20260906064514 68 43 0.0 0.0 0.00 0.00 0.00 94 1018.1
20260906064003 68 42 0.0 0.0 0.00 0.00 0.00 94 1018.2
20260906063503 68 43 0.0 0.0 0.00 0.00 0.00 94 1018.2
20260906063011 68 43 0.0 0.0 0.00 0.00 0.00 94 1018.3
20260906062502 68 43 0.0 0.0 0.00 0.00 0.00 94 1018.4
20260906062004 68 44 0.0 0.0 0.00 0.00 0.00 94 1018.4
20260906061516 68 113 0.0 0.0 0.00 0.00 0.00 93 1018.4
20260906061004 69 120 0.0 0.0 0.00 0.00 0.00 93 1018.4
20260906060506 69 20 0.0 0.0 0.00 0.00 0.00 93 1018.4
20260906060008 69 20 0.0 0.0 0.00 0.00 0.00 93 1018.4
20260906055503 69 20 0.0 0.0 0.00 0.00 0.00 93 1018.5
20260906055003 69 10 0.0 0.0 0.00 0.00 0.00 93 1018.6
20260906054507 69 340 0.0 0.0 0.00 0.00 0.00 93 1018.6
20260906054003 69 314 0.0 0.0 0.00 0.00 0.00 93 1018.5
20260906053502 69 314 0.0 0.0 0.00 0.00 0.00 92 1018.6
20260906053011 69 313 0.0 0.0 0.00 0.00 0.00 92 1018.6
20260906052504 69 314 0.0 0.0 0.00 0.00 0.00 92 1018.5
20260906052004 70 313 0.0 0.0 0.00 0.00 0.00 92 1018.6
20260906051513 70 314 0.0 0.0 0.00 0.00 0.00 91 1018.6
20260906051004 70 313 0.0 0.0 0.00 0.00 0.00 91 1018.5
20260906050508 70 311 0.0 0.0 0.00 0.00 0.00 91 1018.4
20260906050015 70 310 0.0 0.0 0.00 0.00 0.00 91 1018.5
20260906045504 71 311 0.0 0.0 0.00 0.00 0.00 91 1018.4
20260906045003 71 311 0.0 0.0 0.00 0.00 0.00 91 1018.3
20260906044507 70 310 0.0 0.0 0.00 0.00 0.00 91 1018.3
20260906044003 70 266 0.0 0.0 0.00 0.00 0.00 91 1018.3
20260906043504 70 266 0.0 0.0 0.00 0.00 0.00 91 1018.3
20260906043017 70 266 0.0 0.0 0.00 0.00 0.00 91 1018.4
20260906042507 71 26 0.0 0.0 0.00 0.00 0.00 91 1018.4
20260906042007 71 26 0.0 0.0 0.00 0.00 0.00 91 1018.3
20260906041517 71 8 0.0 0.0 0.00 0.00 0.00 91 1018.3
20260906041008 71 25 0.0 0.0 0.00 0.00 0.00 91 1018.4
20260906040506 71 25 0.0 0.0 0.00 0.00 0.00 91 1018.4
20260906040022 71 25 0.0 0.0 0.00 0.00 0.00 91 1018.4
20260906035508 71 25 0.0 0.0 0.00 0.00 0.00 91 1018.4
20260906035008 71 26 0.0 0.0 0.00 0.00 0.00 91 1018.4
20260906034532 71 26 0.0 0.0 0.00 0.00 0.00 91 1018.4
20260906034007 72 25 0.0 0.0 0.00 0.00 0.00 91 1018.3
20260906033503 72 25 0.0 0.0 0.00 0.00 0.00 90 1018.5
20260906033021 72 25 0.0 0.0 0.00 0.00 0.00 91 1018.5
20260906032504 72 29 0.0 0.0 0.00 0.00 0.00 91 1018.4
20260906032005 72 24 0.0 0.0 0.00 0.00 0.00 91 1018.4
20260906031511 72 24 0.0 0.0 0.00 0.00 0.00 91 1018.2
20260906031004 72 24 0.0 0.0 0.00 0.00 0.00 91 1018.2
20260906030508 72 25 0.0 0.0 0.00 0.00 0.00 91 1018.1
20260906030017 72 25 0.0 0.0 0.00 0.00 0.00 91 1018.1
20260906025506 72 24 0.0 0.0 0.00 0.00 0.00 91 1018.1
20260906025006 72 25 0.0 0.0 0.00 0.00 0.00 91 1018.1
20260906024519 72 24 0.0 0.0 0.00 0.00 0.00 91 1018.0
20260906024007 72 24 0.0 0.0 0.00 0.00 0.00 91 1018.0
20260906023510 72 24 0.0 0.0 0.00 0.00 0.00 90 1017.9
20260906023016 72 24 0.0 0.0 0.00 0.00 0.00 91 1017.8
20260906022507 72 24 0.0 0.0 0.00 0.00 0.00 90 1017.7
20260906022004 72 25 0.0 0.0 0.00 0.00 0.00 90 1017.6
20260906021512 72 24 0.0 0.0 0.00 0.00 0.00 90 1017.5
20260906021005 72 24 0.0 0.0 0.00 0.00 0.00 90 1017.3
20260906020506 72 24 0.0 0.0 0.00 0.00 0.00 90 1017.2
20260906020018 73 24 0.0 0.0 0.00 0.00 0.00 90 1017.2
20260906015508 73 24 0.0 0.0 0.00 0.00 0.00 90 1017.1
20260906015010 73 24 0.0 0.0 0.00 0.00 0.00 90 1017.1
20260906014538 73 24 0.0 0.0 0.00 0.00 0.00 90 1017.0
20260906014013 73 25 0.0 0.0 0.00 0.00 0.00 90 1017.0
20260906013508 73 25 0.0 0.0 0.00 0.00 0.00 90 1017.0
20260906013021 73 24 0.0 0.0 0.00 0.00 0.00 89 1016.9
20260906012510 73 24 0.0 0.0 0.00 0.00 0.00 89 1016.8
20260906012008 73 24 0.0 0.0 0.00 0.00 0.00 89 1016.6
20260906011535 73 25 0.0 0.0 0.00 0.00 0.00 89 1016.6
20260906011007 73 25 0.0 0.0 0.00 0.00 0.00 88 1016.5
20260906010505 73 25 0.0 0.0 0.00 0.00 0.00 88 1016.5
20260906010012 74 37 0.0 0.0 0.00 0.00 0.00 88 1016.4
20260906005505 74 37 0.0 0.0 0.00 0.00 0.00 87 1016.4
20260906005005 74 37 0.0 0.9 0.00 0.00 0.00 87 1016.5
20260906004532 74 37 0.0 0.9 0.00 0.00 0.00 87 1016.3
20260906004010 74 37 0.0 0.0 0.00 0.00 0.00 86 1016.3
20260906003510 74 257 0.0 0.0 0.00 0.00 0.00 86 1016.2
20260906003034 75 257 0.0 0.0 0.00 0.00 0.00 85 1016.1
20260906002507 75 6 0.0 0.0 0.00 0.00 0.00 84 1016.2
20260906002012 76 6 0.0 0.0 0.00 0.00 0.00 83 1016.3
20260906001531 76 6 0.0 0.0 0.00 0.00 0.00 82 1016.3
20260906001011 77 6 0.0 0.0 0.00 0.00 0.00 81 1016.3
20260906000515 77 6 0.0 0.0 0.00 0.00 0.00 81 1016.3
20260906000026 78 45 0.0 0.9 0.00 0.00 0.00 79 1016.5
20260905235510 78 39 0.0 0.9 0.00 0.00 0.00 79 1016.4
20260905235007 79 246 0.0 0.9 0.00 0.00 0.00 77 1016.3
20260905234516 79 49 0.0 1.7 0.00 0.00 0.00 76 1016.3
20260905234009 80 84 0.0 1.7 0.00 0.00 0.00 76 1016.3
20260905233508 80 245 0.0 1.7 0.00 0.00 0.00 76 1016.2
20260905233021 80 100 0.0 1.7 0.00 0.00 0.00 76 1016.2
20260905232508 80 37 0.0 0.9 0.00 0.00 0.00 75 1016.2
20260905232013 80 56 0.0 0.9 0.00 0.00 0.00 76 1016.2
20260905231524 80 294 0.0 1.7 0.00 0.00 0.00 76 1016.1
20260905231010 80 70 0.0 4.3 0.00 0.00 0.00 77 1016.1
20260905230509 79 84 0.9 4.3 0.00 0.00 0.00 77 1016.1
20260905230027 78 358 0.0 6.1 0.00 0.00 0.00 79 1016.0
20260905225509 78 138 0.0 6.1 0.00 0.00 0.00 79 1015.9
20260905225013 78 75 0.9 3.5 0.00 0.00 0.00 79 1015.9
20260905224534 78 125 0.0 3.5 0.00 0.00 0.00 80 1015.7
20260905224014 78 96 0.0 3.5 0.00 0.00 0.00 80 1015.7
20260905223507 77 307 0.9 2.6 0.00 0.00 0.00 80 1015.7
20260905223024 77 27 0.9 2.6 0.00 0.00 0.00 80 1015.8
20260905222507 78 311 0.0 3.5 0.00 0.00 0.00 80 1015.8
20260905222008 78 125 0.9 4.3 0.00 0.00 0.00 80 1015.7
20260905221524 78 233 1.7 4.3 0.00 0.00 0.00 79 1015.7
20260905221012 78 225 0.0 3.5 0.00 0.00 0.00 80 1015.7
20260905220513 78 110 0.9 3.5 0.00 0.00 0.00 79 1015.7
20260905220031 78 133 0.0 2.6 0.00 0.00 0.00 79 1015.7
20260905215513 78 153 0.0 4.3 0.00 0.00 0.00 80 1015.7
20260905215005 78 39 0.0 4.3 0.00 0.00 0.00 80 1015.9
20260905214512 78 141 0.0 7.0 0.00 0.00 0.00 81 1015.8
20260905214003 78 142 0.9 7.0 0.00 0.00 0.00 81 1015.7
20260905213507 78 238 0.0 2.6 0.00 0.00 0.00 81 1015.8
20260905213030 78 113 0.0 2.6 0.00 0.00 0.00 81 1016.0
20260905212508 78 33 0.0 2.6 0.00 0.00 0.00 81 1016.1
20260905212008 78 53 0.0 3.5 0.00 0.00 0.00 81 1016.1
20260905211517 78 166 0.0 3.5 0.00 0.00 0.00 80 1016.1
20260905211013 79 232 0.0 2.6 0.00 0.00 0.00 79 1016.0
20260905210511 79 277 0.0 2.6 0.00 0.00 0.00 80 1016.0
20260905210024 79 77 0.0 3.5 0.00 0.00 0.00 80 1016.1
20260905205517 79 40 0.0 3.5 0.00 0.00 0.00 79 1016.2
20260905205014 79 118 0.0 2.6 0.00 0.00 0.00 78 1016.3
20260905204535 80 153 0.0 3.5 0.00 0.00 0.00 78 1016.3
20260905204014 80 128 0.0 7.8 0.00 0.00 0.00 78 1016.5
20260905203512 80 92 0.0 7.8 0.00 0.00 0.00 77 1016.5
20260905203012 81 341 0.0 1.7 0.00 0.00 0.00 78 1016.6
20260905202504 81 78 0.0 3.5 0.00 0.00 0.00 77 1016.6
20260905202005 81 280 0.0 3.5 0.00 0.00 0.00 78 1016.6
20260905201516 81 347 0.9 2.6 0.00 0.00 0.00 76 1016.7
20260905201007 81 51 0.0 1.7 0.00 0.00 0.00 76 1016.8
20260905200508 81 37 0.0 1.7 0.00 0.00 0.00 76 1017.0
20260905200023 81 33 0.0 1.7 0.00 0.00 0.00 76 1017.1
20260905195509 81 328 0.0 0.9 0.00 0.00 0.00 75 1017.1
20260905195014 80 348 0.0 0.9 0.00 0.00 0.00 77 1017.1
20260905194530 80 22 0.0 1.7 0.00 0.00 0.00 77 1017.2
20260905194013 80 58 0.0 1.7 0.00 0.00 0.00 76 1017.3
20260905193516 80 114 0.0 0.9 0.00 0.00 0.00 76 1017.3
20260905193034 80 203 0.0 0.9 0.00 0.00 0.00 77 1017.3
20260905192518 80 224 0.0 1.7 0.00 0.00 0.00 77 1017.3
20260905192014 80 318 0.0 1.7 0.00 0.00 0.00 77 1017.3
20260905191514 80 263 0.0 1.7 0.00 0.00 0.00 77 1017.4
20260905191005 81 252 0.0 1.7 0.00 0.00 0.00 75 1017.4
20260905190505 81 262 0.9 2.6 0.00 0.00 0.00 74 1017.4
20260905190033 82 110 0.9 4.3 0.00 0.00 0.00 75 1017.4
20260905185509 81 68 0.9 4.3 0.00 0.00 0.00 76 1017.3
20260905185009 81 27 0.0 3.5 0.00 0.00 0.00 77 1017.4
20260905184528 80 304 1.7 3.5 0.00 0.00 0.00 77 1017.4
20260905184010 80 189 0.9 2.6 0.00 0.00 0.00 78 1017.4
20260905183510 79 135 0.0 3.5 0.00 0.00 0.00 79 1017.4
20260905183035 79 117 0.0 3.5 0.00 0.00 0.00 81 1017.5
20260905182514 78 236 0.0 0.9 0.00 0.00 0.00 81 1017.7
20260905182016 78 73 0.0 0.9 0.00 0.00 0.00 83 1017.8
20260905181536 78 148 0.0 0.9 0.00 0.00 0.00 83 1017.8
20260905181014 77 294 0.0 0.9 0.00 0.00 0.00 82 1017.9
20260905180515 77 285 0.0 0.9 0.00 0.00 0.00 84 1018.0
20260905180015 76 143 0.0 2.6 0.00 0.00 0.00 84 1018.1
20260905175506 76 15 0.0 2.6 0.00 0.00 0.00 84 1018.1
20260905175006 76 91 0.0 1.7 0.00 0.00 0.00 83 1018.1
20260905174526 77 245 0.0 1.7 0.00 0.00 0.00 82 1018.3
20260905174013 77 41 0.0 0.9 0.00 0.00 0.00 82 1018.2
20260905173512 77 37 0.0 0.9 0.00 0.00 0.00 84 1018.2
20260905173023 76 92 0.0 0.9 0.00 0.00 0.00 85 1018.3
20260905172511 76 76 0.0 0.9 0.00 0.00 0.00 86 1018.3
20260905172017 76 49 0.0 0.9 0.00 0.00 0.00 87 1018.4
20260905171532 75 50 0.0 2.6 0.00 0.00 0.00 86 1018.5
20260905171014 75 132 0.0 2.6 0.00 0.00 0.00 86 1018.5
20260905170514 75 82 0.0 2.6 0.00 0.00 0.00 85 1018.3
20260905170029 76 338 0.0 1.7 0.00 0.00 0.00 86 1018.4
20260905165520 76 72 0.0 1.7 0.00 0.00 0.00 85 1018.4
20260905165013 76 126 0.0 3.5 0.00 0.00 0.00 86 1018.3
20260905164512 76 84 0.0 3.5 0.00 0.00 0.00 86 1018.1
20260905164008 76 198 0.0 1.7 0.00 0.00 0.00 87 1018.0
20260905163507 75 44 0.0 2.6 0.00 0.00 0.00 87 1017.9
20260905163021 75 53 0.0 2.6 0.00 0.00 0.00 87 1017.9
20260905162513 75 123 0.0 2.6 0.00 0.00 0.00 87 1018.0
20260905162012 75 122 0.0 1.7 0.00 0.00 0.00 88 1018.0
20260905161528 74 249 0.0 1.7 0.00 0.00 0.00 89 1018.0
20260905161012 74 149 0.0 1.7 0.00 0.00 0.00 88 1018.0
20260905160513 74 246 0.0 2.6 0.00 0.00 0.00 88 1018.0
20260905160042 74 340 0.0 2.6 0.00 0.00 0.00 88 1018.1
20260905155517 74 180 0.0 2.6 0.00 0.00 0.00 88 1018.0
20260905155015 74 47 0.0 2.6 0.00 0.00 0.00 88 1017.9
20260905154534 74 355 0.9 4.3 0.00 0.00 0.00 88 1017.9
20260905154016 74 115 0.0 4.3 0.00 0.00 0.00 89 1017.9
20260905153515 74 78 0.0 7.8 0.00 0.00 0.00 90 1017.8